sat.trackr.live / text

‹ back to catalog

STARLINK-36080

NORAD 66801 · 2025-278L

PAYLOAD ACTIVE UNKNOWN

§ Identity

Operator
Country
US
Launch date
2025-12-01
Launch site
AFETR
Launch vehicle
Mass (kg)
RCS (m²)

Purposes: comms

External: N2YO · Heavens-Above · Gunter

§ Orbital elements

Epoch: 2026-05-25T02:53:41.090208Z

Period
94.27 min
Inclination
43.0016°
Eccentricity
0.0001343
Mean motion
15.27606174 rev/d
Perigee alt
482.0 km
Apogee alt
483.9 km
Semi-major
6,861.1 km
B*
8.6115e-4
RAAN
43.1215°
Arg perigee
258.6713°
Mean anomaly
101.3988°
Rev number
2,689

§ Raw data

STARLINK-360801 66801U 25278L   26145.12061447  .00023529  00000+0  86115-3 0  99922 66801  43.0016  43.1215 0001343 258.6713 101.3988 15.27606174 26890

JSON: /api/v1/satellites/66801 · /tle

For live sub-satellite position, see the globe view (requires WebGL).

§ Visibility from observer

Set your observer location to see the next 7 days of passes ≥ 10°. The values pass through the URL so the page stays shareable.

No JS? Fill the form by hand. The geolocation button needs JavaScript.